Regional Weather Roundup
Issued by NWS

Home | Current Version | Previous Version | Graphics & Text | Print | Product List | Glossary On
Versions: 1 2 3 4 5 6 7 8 9 10 11 12 13 14 15 16 17 18 19 20 21 22 23 24 25 26 27 28 29 30 31 32 33 34 35 36 37 38 39 40 41 42 43 44 45 46 47 48 49 50
000
ASUS45 KSLC 210410
RWRUT

UTAH REGIONAL WEATHER ROUNDUP
NATIONAL WEATHER SERVICE SALT LAKE CITY UT
1000 PM MDT WED AUG 20 2014

UTZ001>011-023>025-210500-

NORTHERN UTAH

CITY           SKY/WX    TMP DP  RH WIND       PRES   REMARKS
HILL AFB       TSTM      66  52  59 W8        30.08R
LOGAN          LGT RAIN  59  57  93 W10       30.08F
OGDEN          CLOUDY    65  53  65 N9        30.02R
PROVO AIRPORT  CLOUDY    70  52  52 NE5       30.05R
SALT LAKE CITY CLOUDY    67  55  65 NE13      30.03R
VERNAL         CLOUDY    64  54  69 N7        30.08R
WENDOVER       CLOUDY    72  50  46 S24       29.95S
HEBER CITY     RAIN      59  52  77 SE8       30.13R
WEST JORDAN    CLOUDY    66  57  72 S5        30.04R

$$

UTZ012>022-026-027-210500-

SOUTHERN UTAH

CITY           SKY/WX    TMP DP  RH WIND       PRES   REMARKS
BRYCE CANYON   MOCLDY    52  44  74 N3        30.27R
CEDAR CITY     CLEAR     63  43  48 W5        30.12R
MILFORD        PTCLDY    66  47  50 S6        30.07R
MOAB/CYNLANDS  CLEAR     65  55  70 S7        30.03R
PRICE          LGT RAIN  64  52  64 NE6       30.13R
ST GEORGE      CLOUDY    75  54  46 SE12      29.97R

$$

REGIONAL REPORTS     COLORADO/ARIZONA

CITY           SKY/WX    TMP DP  RH WIND       PRES   REMARKS
CRAIG, CO      MOCLDY    57  52  83 S7        30.17R
GRAND JUNCTION CLOUDY    69  46  43 N15       30.05R
RIFLE          CLOUDY    69  46  43 NW22G30   30.09R
MONTROSE       PTCLDY    67  47  48 SW5       30.15R
CORTEZ         CLEAR     64  44  48 W3        30.14R
PAGE, AZ       MOCLDY    78  42  27 W7        30.06R
GRAND CANYON     N/A    N/A N/A N/A MISG        N/A
KINGMAN        MOCLDY    77  51  40 S8        30.00R
FLAGSTAFF      PTCLDY    55  48  77 CALM      30.28R

$$

REGIONAL REPORTS    NEVADA/IDAHO/WYOMING

CITY           SKY/WX    TMP DP  RH WIND       PRES   REMARKS
LAS VEGAS, NV  PTCLDY    83  51  33 S10       29.85R
ELY            PTCLDY    60  49  66 S10       30.11R
ELKO           CLOUDY    76  37  24 E6        29.94R
POCATELLO, ID  PTCLDY    63  52  67 NW8       29.96R
BURLEY         CLOUDY    63  53  70 S6        29.90S
EVANSTON, WY   PTCLDY    56  43  61 N23G36    30.17R
ROCK SPRINGS   MOCLDY    57  45  64 NW6       30.14R

$$


USA.gov is the U.S. government's official web portal to all federal, state and local government web resources and services.